Regional Weather Roundup
Issued by NWS Cleveland, OH

Home | Current Version | Previous Version | Graphics & Text | Print | Product List | Glossary On
Versions: 1 2 3 4 5 6 7 8 9 10 11 12 13 14 15 16 17 18 19 20 21 22 23 24 25 26 27 28 29 30 31 32 33 34 35 36 37 38 39 40 41 42 43 44 45 46 47 48 49 50
000
ASUS41 KCLE 272102
RWRCLE
OHIO REGIONAL WEATHER ROUNDUP
NATIONAL WEATHER SERVICE CLEVELAND, OH
400 PM EST MON FEB 27 2017

NOTE: "FAIR" INDICATES FEW OR NO CLOUDS BELOW 12,000 FEET WITH NO
SIGNIFICANT WEATHER AND/OR OBSTRUCTIONS TO VISIBILITY.

OHZ001>008-015>018-024>027-034-035-043-044-272200-
   NORTHWEST OHIO

CITY           SKY/WX    TMP DP  RH WIND       PRES   REMARKS
DEFIANCE       CLOUDY    48  33  56 S5        30.19S
FINDLAY        CLOUDY    50  33  52 S12       30.19S
TOLEDO EXPRESS CLOUDY    49  34  56 SW8       30.19F
TOLEDO EXEC    CLOUDY    50  35  56 S13       30.21S
LIMA           CLOUDY    46  38  73 S13       30.19S
$$

OHZ009>014-019>023-028>033-038-089-272200-
   NORTHEAST OHIO

CITY           SKY/WX    TMP DP  RH WIND       PRES   REMARKS
CLE-HOPKINS    MOSUNNY   49  26  41 S14       30.26S
CLE-LAKEFRONT  MOSUNNY   50  27  40 S15       30.23F
CUY CO. ARPT   PTSUNNY   50  27  40 SW10      30.24S
LORAIN-ELYRIA  MOSUNNY   48  27  44 S12       30.23S
ASHTABULA      CLOUDY    47  26  44 S15       30.24F
AKRON-CANTON   CLOUDY    45  34  65 S16       30.25S
WOOSTER        CLOUDY    44  35  70 S13       30.24F
MANSFIELD      CLOUDY    44  36  73 S17       30.21F
YOUNGSTOWN     CLOUDY    45  27  49 SW8       30.26S
$$

OHZ042-051>053-060>062-070>072-077>081-272200-
  SOUTHWEST OHIO

CITY           SKY/WX    TMP DP  RH WIND       PRES   REMARKS
CINC-COVINGTON CLOUDY    49  45  86 S8        30.19F
CINC-LUNKEN    CLOUDY    49  45  86 S6        30.22F
HAMILTON       CLOUDY    48  45  89 SE3       30.21F
DAYTON         CLOUDY    46  39  76 S12       30.20S
WRIGHT-PAT AFB CLOUDY    46  42  86 S10       30.20F
DAYTON GENERAL CLOUDY    45  42  89 S10       30.19F
WILMINGTON     CLOUDY    46  43  89 S5        30.20F
$$

OHZ036-037-039>041-045>050-054>059-063>069-073>076-082>088-272200-
  CENTRAL AND SOUTHEAST OHIO

CITY           SKY/WX    TMP DP  RH WIND       PRES   REMARKS
COLUMBUS       CLOUDY    46  39  76 S8        30.23F
OSU AIRPORT    CLOUDY    45  40  82 S7        30.22F
BOLTON FIELD   RAIN      43  41  93 S13       30.24R
RICKENBACK AFB DRIZZLE   42  42  97 SE6       30.23F
NEWARK         CLOUDY    45  38  76 S8        30.24F
MARION         CLOUDY    44  37  76 S14       30.23S
LANCASTER      CLOUDY    45  42  89 SE7       30.25F
ZANESVILLE     CLOUDY    43  40  89 S5        30.27S
NEW PHILLY     NOT AVBL
$$




USA.gov is the U.S. government's official web portal to all federal, state and local government web resources and services.